Showing default

COSMOS 2092, 20737

Orbit data source: Space-Track

COSMOS 2092, 20737 is a payload satellite owned by UNKS (CIS) in LEO that was launched on Wed, 08 Aug 1990 UTC via a TSIKLON-3 launch vehicle from the Plesetsk Missile And Space Complex (PKMTR). Payload-class satellites include a variety of spacecraft equipped with specific instruments for various scientific and technological missions. These include communications satellites like Starlink; space stations such as the ISS; scientific satellites like the Hubble; Earth observation satellites from companies like Planet Labs, Umbra, and HawkEye 360; GPS; miniature CubeSats for education and research; and military/defense satellites.

Loading next visibility...
Identifier
20737, 1990-070C
Orbit
LEO
Country
Flag of CISCIS
Related business
Manufacturer
NPO PM
Mission
Defense Communications
Bus & Motor
STRELA-3, Unknown motor
Mass
225 kg wet, 225 kg dry
Launch date (UTC)
1990-08-08 (35 years ago)
Launch vehicle
TSIKLON-3
Launch site
Plesetsk Missile And Space Complex (PKMTR)
Object type
Payload
Rocket body
Debris
Shape & HBR
Cyl, 0.8 m
Radar Cross Section
1.257 m², Large (>1 m²)

Expand to show TLE details & history
Last TLE update: 14 hours ago

TLE from 14 hours ago
0 COSMOS 2092
1 20737U 90070C   25350.31323470  .00000007  00000-0 -18837-4 0  9992
2 20737  82.5694  62.8919 0004674 174.0262 253.8488 12.63344820630261
Epoch: 2025-12-16T07:31Z
TLE epoch observation values (Epoch: 2025-12-16T07:31:03.478Z)
Latitude
66.749°
Longitude
-117.4911°
Altitude
1,421.7 km
Speed
7.156 km/s
True Right ascension
05h 21m 53s
True Declination
66° 38' 05"
Sunlit
Object was in full shadow at epoch
Visualization orbit readout
Latitude
Unknown
Longitude
Unknown
Altitude
Unknown
Speed
Unknown
Apparent Right ascension
Unknown
Apparent Declination
Unknown
Sunlit
N/A
Visualization observer readout
Local Sidereal Time
19:47:08
Azimuth
Unknown
Elevation
Unknown
Doppler factor
Unknown
Orbital elements
Apogee altitude
1,410.127 km
Perigee altitude
1,402.85 km
Semi-major axis
7,784.626 km
Eccentricity
0.00047
Inclination
82.5694°
RAAN
62.8919°
Arg. of periapsis
174.0262°
True anomaly
253.79736°
Mean anomaly
253.8488°
Eccentric anomaly
253.82308°
Mean motion
3.16 °/min
Orbital period
113.92 mins
BSTAR
-0.000018837
Loading maneuver chart data...
Computing Atmospheric mass density...
Loading historical data...
Loading historical data...
Loading historical data...
Loading historical data...
Loading historical data...
Loading historical data...
Loading historical data...

Documentation

Showing up to 5 results
|